| time (UTC) | temp F | wind direction | speed MPH | gust MPH | rain 1hr in | rain 24hr in | rain mn in | humidity % | barometer mb |
| 20260504050453 | 60 | 123 | 0.0 | 0.0 | 0.00 | 0.00 | 0.00 | 79 | 1014.7 |
| 20260504050225 | 60 | 123 | 0.0 | 0.0 | 0.00 | 0.00 | 0.00 | 79 | 1014.6 |
| 20260504045453 | 60 | 123 | 0.0 | 0.0 | 0.00 | 0.00 | 0.00 | 78 | 1014.6 |
| 20260504044946 | 61 | 123 | 0.0 | 0.0 | 0.00 | 0.00 | 0.00 | 78 | 1014.7 |
| 20260504044446 | 61 | 122 | 0.0 | 0.0 | 0.00 | 0.00 | 0.00 | 77 | 1014.7 |
| 20260504043946 | 61 | 123 | 0.0 | 0.0 | 0.00 | 0.00 | 0.00 | 77 | 1014.7 |
| 20260504043447 | 61 | 123 | 0.0 | 0.0 | 0.00 | 0.00 | 0.00 | 76 | 1014.7 |
| 20260504042947 | 62 | 122 | 0.0 | 0.0 | 0.00 | 0.00 | 0.00 | 76 | 1014.7 |
| 20260504042447 | 62 | 123 | 0.0 | 0.0 | 0.00 | 0.00 | 0.00 | 76 | 1014.8 |
| 20260504041943 | 62 | 123 | 0.0 | 0.0 | 0.00 | 0.00 | 0.00 | 75 | 1014.9 |
| 20260504041714 | 62 | 122 | 0.0 | 0.0 | 0.00 | 0.00 | 0.00 | 75 | 1014.8 |
| 20260504040943 | 62 | 122 | 0.0 | 0.0 | 0.00 | 0.00 | 0.00 | 75 | 1014.7 |
| 20260504040442 | 63 | 123 | 0.0 | 0.0 | 0.00 | 0.00 | 0.00 | 74 | 1014.7 |
| 20260504035943 | 63 | 123 | 0.0 | 0.0 | 0.00 | 0.00 | 0.00 | 74 | 1014.7 |
| 20260504035443 | 64 | 123 | 0.0 | 0.0 | 0.00 | 0.00 | 0.00 | 73 | 1014.6 |
| 20260504035215 | 64 | 123 | 0.0 | 0.0 | 0.00 | 0.00 | 0.00 | 72 | 1014.6 |
| 20260504034713 | 64 | 123 | 0.0 | 0.0 | 0.00 | 0.00 | 0.00 | 72 | 1014.6 |
| 20260504033938 | 65 | 122 | 0.0 | 0.0 | 0.00 | 0.00 | 0.00 | 71 | 1014.7 |
| 20260504033443 | 66 | 123 | 0.0 | 4.0 | 0.00 | 0.00 | 0.00 | 69 | 1014.8 |
| 20260504033438 | 65 | 123 | 0.0 | 0.0 | 0.00 | 0.00 | 0.00 | 70 | 1014.9 |
| 20260504032437 | 66 | 123 | 0.0 | 4.0 | 0.00 | 0.00 | 0.00 | 69 | 1014.8 |
| 20260504031937 | 66 | 113 | 0.0 | 0.0 | 0.00 | 0.00 | 0.00 | 69 | 1014.7 |
| 20260504031705 | 66 | 115 | 0.0 | 1.0 | 0.00 | 0.00 | 0.00 | 68 | 1014.6 |
| 20260504030934 | 66 | 133 | 0.0 | 1.0 | 0.00 | 0.00 | 0.00 | 68 | 1014.6 |
| 20260504030434 | 67 | 161 | 0.0 | 2.0 | 0.00 | 0.00 | 0.00 | 68 | 1014.6 |
| 20260504025932 | 67 | 111 | 0.0 | 2.0 | 0.00 | 0.00 | 0.00 | 68 | 1014.6 |
| 20260504025433 | 67 | 103 | 0.0 | 2.0 | 0.00 | 0.00 | 0.00 | 68 | 1014.6 |
| 20260504025206 | 67 | 117 | 0.0 | 3.0 | 0.00 | 0.00 | 0.00 | 68 | 1014.6 |
| 20260504024703 | 67 | 120 | 0.0 | 3.0 | 0.00 | 0.00 | 0.00 | 67 | 1014.5 |
| 20260504023926 | 67 | 110 | 0.0 | 2.0 | 0.00 | 0.00 | 0.00 | 67 | 1014.6 |
| 20260504023426 | 67 | 129 | 0.0 | 1.0 | 0.00 | 0.00 | 0.00 | 66 | 1014.5 |
| 20260504022927 | 67 | 129 | 0.0 | 1.0 | 0.00 | 0.00 | 0.00 | 66 | 1014.4 |
| 20260504022706 | 67 | 89 | 0.0 | 2.0 | 0.00 | 0.00 | 0.00 | 65 | 1014.5 |
| 20260504022427 | 67 | 134 | 0.0 | 1.0 | 0.00 | 0.00 | 0.00 | 65 | 1014.5 |
| 20260504021426 | 68 | 108 | 0.0 | 2.0 | 0.00 | 0.00 | 0.00 | 64 | 1014.4 |
| 20260504020922 | 68 | 174 | 0.0 | 4.0 | 0.00 | 0.00 | 0.00 | 64 | 1014.4 |
| 20260504020423 | 68 | 142 | 0.0 | 4.0 | 0.00 | 0.00 | 0.00 | 63 | 1014.3 |
| 20260504015921 | 68 | 125 | 0.0 | 1.0 | 0.00 | 0.00 | 0.00 | 62 | 1014.3 |
| 20260504015421 | 68 | 92 | 0.0 | 3.0 | 0.00 | 0.00 | 0.00 | 62 | 1014.3 |
| 20260504014919 | 68 | 141 | 0.0 | 3.0 | 0.00 | 0.00 | 0.00 | 61 | 1014.3 |
| 20260504014419 | 69 | 77 | 0.0 | 2.0 | 0.00 | 0.00 | 0.00 | 60 | 1014.3 |
| 20260504013915 | 69 | 97 | 0.0 | 3.0 | 0.00 | 0.00 | 0.00 | 60 | 1014.2 |
| 20260504013412 | 69 | 105 | 0.0 | 3.0 | 0.00 | 0.00 | 0.00 | 58 | 1014.2 |
| 20260504012909 | 70 | 141 | 0.0 | 3.0 | 0.00 | 0.00 | 0.00 | 57 | 1014.1 |
| 20260504012642 | 70 | 82 | 0.0 | 3.0 | 0.00 | 0.00 | 0.00 | 57 | 1014.1 |
| 20260504011908 | 70 | 90 | 0.0 | 4.0 | 0.00 | 0.00 | 0.00 | 57 | 1014.2 |
| 20260504011641 | 70 | 126 | 0.0 | 4.0 | 0.00 | 0.00 | 0.00 | 56 | 1014.2 |
| 20260504010906 | 71 | 107 | 0.0 | 3.0 | 0.00 | 0.00 | 0.00 | 56 | 1014.2 |
| 20260504010404 | 71 | 149 | 1.0 | 7.0 | 0.00 | 0.00 | 0.00 | 55 | 1014.3 |
| 20260504005904 | 71 | 115 | 1.0 | 7.0 | 0.00 | 0.00 | 0.00 | 55 | 1014.1 |
| 20260504005405 | 72 | 98 | 0.0 | 4.0 | 0.00 | 0.00 | 0.00 | 54 | 1014.0 |
| 20260504004903 | 72 | 73 | 1.0 | 4.0 | 0.00 | 0.00 | 0.00 | 54 | 1014.2 |
| 20260504004635 | 73 | 91 | 0.0 | 4.0 | 0.00 | 0.00 | 0.00 | 53 | 1014.1 |
| 20260504003900 | 73 | 79 | 0.0 | 4.0 | 0.00 | 0.00 | 0.00 | 52 | 1014.2 |
| 20260504003359 | 74 | 134 | 1.0 | 5.0 | 0.00 | 0.00 | 0.00 | 51 | 1014.2 |
| 20260504003133 | 74 | 95 | 0.0 | 5.0 | 0.00 | 0.00 | 0.00 | 50 | 1014.1 |
| 20260504002407 | 75 | 137 | 0.0 | 2.0 | 0.00 | 0.00 | 0.00 | 50 | 1014.1 |
| 20260504002401 | 74 | 107 | 0.0 | 2.0 | 0.00 | 0.00 | 0.00 | 50 | 1014.1 |
| 20260504001357 | 75 | 78 | 0.0 | 7.0 | 0.00 | 0.00 | 0.00 | 50 | 1014.1 |
| 20260504000858 | 74 | 122 | 1.0 | 7.0 | 0.00 | 0.00 | 0.00 | 49 | 1014.0 |
| 20260504000401 | 75 | 136 | 1.0 | 6.0 | 0.00 | 0.00 | 0.00 | 48 | 1014.0 |
| 20260504000124 | 76 | 97 | 1.0 | 9.0 | 0.00 | 0.00 | 0.00 | 47 | 1014.0 |
| 20260503235354 | 77 | 81 | 1.0 | 9.0 | 0.00 | 0.00 | 0.00 | 46 | 1014.0 |
| 20260503234854 | 78 | 79 | 1.0 | 5.0 | 0.00 | 0.00 | 0.00 | 45 | 1014.1 |
| 20260503234354 | 78 | 109 | 1.0 | 5.0 | 0.00 | 0.00 | 0.00 | 44 | 1014.1 |
| 20260503233854 | 78 | 206 | 0.0 | 5.0 | 0.00 | 0.00 | 0.00 | 46 | 1014.2 |
| 20260503233354 | 78 | 155 | 1.0 | 4.0 | 0.00 | 0.00 | 0.00 | 46 | 1014.2 |
| 20260503232850 | 78 | 150 | 2.0 | 8.0 | 0.00 | 0.00 | 0.00 | 46 | 1014.2 |
| 20260503232351 | 78 | 86 | 2.0 | 8.0 | 0.00 | 0.00 | 0.00 | 45 | 1014.4 |
| 20260503231851 | 78 | 105 | 1.0 | 9.0 | 0.00 | 0.00 | 0.00 | 45 | 1014.5 |
| 20260503231350 | 78 | 138 | 1.0 | 9.0 | 0.00 | 0.00 | 0.00 | 44 | 1014.4 |
| 20260503230851 | 79 | 100 | 1.0 | 5.0 | 0.00 | 0.00 | 0.00 | 45 | 1014.4 |
| 20260503230351 | 79 | 112 | 2.0 | 6.0 | 0.00 | 0.00 | 0.00 | 44 | 1014.4 |
| 20260503225846 | 79 | 73 | 1.0 | 6.0 | 0.00 | 0.00 | 0.00 | 43 | 1014.4 |
| 20260503225618 | 80 | 82 | 1.0 | 6.0 | 0.00 | 0.00 | 0.00 | 43 | 1014.4 |
| 20260503224846 | 80 | 80 | 1.0 | 6.0 | 0.00 | 0.00 | 0.00 | 43 | 1014.4 |
| 20260503224347 | 80 | 117 | 1.0 | 6.0 | 0.00 | 0.00 | 0.00 | 43 | 1014.6 |
| 20260503223845 | 81 | 124 | 1.0 | 6.0 | 0.00 | 0.00 | 0.00 | 43 | 1014.6 |
| 20260503223347 | 81 | 86 | 1.0 | 6.0 | 0.00 | 0.00 | 0.00 | 43 | 1014.6 |
| 20260503222842 | 81 | 71 | 1.0 | 5.0 | 0.00 | 0.00 | 0.00 | 42 | 1014.6 |
| 20260503222615 | 80 | 224 | 1.0 | 5.0 | 0.00 | 0.00 | 0.00 | 42 | 1014.7 |
| 20260503221843 | 80 | 89 | 1.0 | 5.0 | 0.00 | 0.00 | 0.00 | 41 | 1014.8 |
| 20260503221342 | 80 | 105 | 1.0 | 5.0 | 0.00 | 0.00 | 0.00 | 42 | 1014.9 |
| 20260503220843 | 81 | 117 | 2.0 | 7.0 | 0.00 | 0.00 | 0.00 | 41 | 1015.0 |
| 20260503220343 | 81 | 101 | 1.0 | 7.0 | 0.00 | 0.00 | 0.00 | 43 | 1015.0 |
| 20260503215837 | 81 | 101 | 1.0 | 5.0 | 0.00 | 0.00 | 0.00 | 42 | 1014.9 |
| 20260503215339 | 80 | 95 | 1.0 | 6.0 | 0.00 | 0.00 | 0.00 | 42 | 1015.0 |
| 20260503215110 | 80 | 91 | 2.0 | 6.0 | 0.00 | 0.00 | 0.00 | 37 | 1015.0 |
| 20260503214338 | 80 | 101 | 2.0 | 7.0 | 0.00 | 0.00 | 0.00 | 38 | 1015.0 |
| 20260503213839 | 81 | 129 | 1.0 | 7.0 | 0.00 | 0.00 | 0.00 | 38 | 1015.1 |
| 20260503213339 | 81 | 105 | 1.0 | 6.0 | 0.00 | 0.00 | 0.00 | 38 | 1015.2 |
| 20260503212833 | 81 | 100 | 2.0 | 6.0 | 0.00 | 0.00 | 0.00 | 40 | 1015.3 |
| 20260503212335 | 81 | 101 | 2.0 | 7.0 | 0.00 | 0.00 | 0.00 | 38 | 1015.4 |
| 20260503212104 | 82 | 21 | 1.0 | 7.0 | 0.00 | 0.00 | 0.00 | 34 | 1015.4 |
| 20260503211604 | 82 | 101 | 0.0 | 5.0 | 0.00 | 0.00 | 0.00 | 34 | 1015.4 |
| 20260503210834 | 81 | 96 | 1.0 | 8.0 | 0.00 | 0.00 | 0.00 | 36 | 1015.6 |
| 20260503210334 | 80 | 97 | 2.0 | 8.0 | 0.00 | 0.00 | 0.00 | 36 | 1015.7 |
| 20260503205830 | 81 | 136 | 2.0 | 7.0 | 0.00 | 0.00 | 0.00 | 35 | 1015.8 |
| 20260503205331 | 81 | 113 | 1.0 | 5.0 | 0.00 | 0.00 | 0.00 | 35 | 1015.7 |
| 20260503204829 | 82 | 127 | 1.0 | 8.0 | 0.00 | 0.00 | 0.00 | 37 | 1015.8 |
| 20260503204321 | 81 | 233 | 1.0 | 8.0 | 0.00 | 0.00 | 0.00 | 36 | 1015.9 |
| 20260503203823 | 81 | 203 | 1.0 | 8.0 | 0.00 | 0.00 | 0.00 | 38 | 1016.0 |
| 20260503203322 | 80 | 93 | 2.0 | 8.0 | 0.00 | 0.00 | 0.00 | 34 | 1016.1 |
| 20260503202822 | 81 | 215 | 2.0 | 8.0 | 0.00 | 0.00 | 0.00 | 38 | 1016.1 |
| 20260503202321 | 80 | 115 | 2.0 | 8.0 | 0.00 | 0.00 | 0.00 | 37 | 1016.1 |
| 20260503201822 | 80 | 107 | 3.0 | 8.0 | 0.00 | 0.00 | 0.00 | 35 | 1016.3 |
| 20260503201319 | 80 | 96 | 2.0 | 8.0 | 0.00 | 0.00 | 0.00 | 35 | 1016.4 |
| 20260503201051 | 80 | 48 | 2.0 | 10.0 | 0.00 | 0.00 | 0.00 | 38 | 1016.6 |
| 20260503200320 | 80 | 103 | 2.0 | 10.0 | 0.00 | 0.00 | 0.00 | 36 | 1016.6 |
| 20260503195819 | 80 | 85 | 2.0 | 9.0 | 0.00 | 0.00 | 0.00 | 38 | 1016.7 |
| 20260503195320 | 80 | 71 | 3.0 | 9.0 | 0.00 | 0.00 | 0.00 | 34 | 1016.7 |
| 20260503194821 | 81 | 105 | 2.0 | 9.0 | 0.00 | 0.00 | 0.00 | 36 | 1016.7 |
| 20260503194320 | 82 | 224 | 0.0 | 3.0 | 0.00 | 0.00 | 0.00 | 37 | 1016.8 |
| 20260503193814 | 81 | 228 | 1.0 | 7.0 | 0.00 | 0.00 | 0.00 | 37 | 1016.9 |
| 20260503193313 | 81 | 150 | 1.0 | 7.0 | 0.00 | 0.00 | 0.00 | 35 | 1017.0 |
| 20260503192814 | 81 | 71 | 1.0 | 5.0 | 0.00 | 0.00 | 0.00 | 36 | 1016.9 |
| 20260503192312 | 80 | 100 | 2.0 | 11.0 | 0.00 | 0.00 | 0.00 | 41 | 1017.0 |
| 20260503191812 | 79 | 84 | 2.0 | 11.0 | 0.00 | 0.00 | 0.00 | 39 | 1017.1 |
| 20260503191544 | 80 | 70 | 2.0 | 7.0 | 0.00 | 0.00 | 0.00 | 38 | 1017.3 |
| 20260503190810 | 80 | 121 | 2.0 | 7.0 | 0.00 | 0.00 | 0.00 | 36 | 1017.4 |
| 20260503190309 | 79 | 79 | 1.0 | 6.0 | 0.00 | 0.00 | 0.00 | 38 | 1017.4 |
| 20260503185810 | 80 | 151 | 1.0 | 5.0 | 0.00 | 0.00 | 0.00 | 39 | 1017.5 |
| 20260503185309 | 80 | 56 | 1.0 | 5.0 | 0.00 | 0.00 | 0.00 | 39 | 1017.5 |
| 20260503184811 | 80 | 134 | 1.0 | 5.0 | 0.00 | 0.00 | 0.00 | 39 | 1017.6 |
| 20260503184310 | 79 | 125 | 2.0 | 7.0 | 0.00 | 0.00 | 0.00 | 38 | 1017.7 |
| 20260503184047 | 79 | 60 | 1.0 | 7.0 | 0.00 | 0.00 | 0.00 | 38 | 1017.8 |
| 20260503183305 | 80 | 81 | 1.0 | 7.0 | 0.00 | 0.00 | 0.00 | 40 | 1017.9 |
| 20260503182810 | 80 | 108 | 1.0 | 7.0 | 0.00 | 0.00 | 0.00 | 40 | 1018.0 |
| 20260503182306 | 79 | 103 | 1.0 | 7.0 | 0.00 | 0.00 | 0.00 | 41 | 1018.0 |
| 20260503182038 | 78 | 68 | 2.0 | 7.0 | 0.00 | 0.00 | 0.00 | 41 | 1018.1 |
| 20260503181305 | 79 | 86 | 3.0 | 7.0 | 0.00 | 0.00 | 0.00 | 39 | 1018.1 |
| 20260503180805 | 79 | 69 | 2.0 | 7.0 | 0.00 | 0.00 | 0.00 | 40 | 1018.2 |
| 20260503180306 | 79 | 89 | 1.0 | 8.0 | 0.00 | 0.00 | 0.00 | 41 | 1018.3 |
| 20260503175801 | 79 | 60 | 1.0 | 8.0 | 0.00 | 0.00 | 0.00 | 38 | 1018.4 |
| 20260503175301 | 79 | 145 | 1.0 | 5.0 | 0.00 | 0.00 | 0.00 | 38 | 1018.5 |
| 20260503174801 | 78 | 210 | 2.0 | 7.0 | 0.00 | 0.00 | 0.00 | 40 | 1018.6 |
| 20260503174257 | 78 | 37 | 3.0 | 9.0 | 0.00 | 0.00 | 0.00 | 37 | 1018.7 |
| 20260503173805 | 78 | 73 | 2.0 | 6.0 | 0.00 | 0.00 | 0.00 | 40 | 1018.9 |
| 20260503173758 | 78 | 93 | 3.0 | 9.0 | 0.00 | 0.00 | 0.00 | 39 | 1018.8 |
| 20260503172755 | 78 | 77 | 1.0 | 5.0 | 0.00 | 0.00 | 0.00 | 39 | 1018.9 |
| 20260503172258 | 78 | 86 | 1.0 | 6.0 | 0.00 | 0.00 | 0.00 | 40 | 1019.0 |
| 20260503171751 | 78 | 210 | 1.0 | 6.0 | 0.00 | 0.00 | 0.00 | 41 | 1019.1 |
| 20260503171252 | 78 | 141 | 1.0 | 6.0 | 0.00 | 0.00 | 0.00 | 41 | 1019.1 |
| 20260503170752 | 77 | 125 | 1.0 | 8.0 | 0.00 | 0.00 | 0.00 | 41 | 1019.1 |
| 20260503170252 | 78 | 89 | 1.0 | 8.0 | 0.00 | 0.00 | 0.00 | 40 | 1019.2 |
| 20260503150728 | 75 | 68 | 0.0 | 3.0 | 0.00 | 0.00 | 0.00 | 55 | 1019.0 |
| 20260503150228 | 75 | 113 | 0.0 | 3.0 | 0.00 | 0.00 | 0.00 | 58 | 1019.0 |
| 20260503140215 | 72 | 127 | 0.0 | 0.0 | 0.00 | 0.00 | 0.00 | 69 | 1018.7 |
| 20260503131158 | 62 | 65 | 0.0 | 0.0 | 0.00 | 0.00 | 0.00 | 95 | 1018.4 |
| 20260503130657 | 62 | 66 | 0.0 | 0.0 | 0.00 | 0.00 | 0.00 | 95 | 1018.5 |
| 20260503130426 | 62 | 66 | 0.0 | 0.0 | 0.00 | 0.00 | 0.00 | 96 | 1018.5 |
| 20260503120139 | 52 | 66 | 0.0 | 0.0 | 0.00 | 0.00 | 0.00 | 97 | 1018.0 |
| 20260503110614 | 53 | 66 | 0.0 | 0.0 | 0.00 | 0.00 | 0.00 | 96 | 1017.5 |
| 20260503110114 | 53 | 66 | 0.0 | 0.0 | 0.00 | 0.00 | 0.00 | 97 | 1017.4 |
| 20260503081018 | 55 | 66 | 0.0 | 0.0 | 0.00 | 0.00 | 0.00 | 95 | 1017.1 |
| 20260503080752 | 55 | 66 | 0.0 | 0.0 | 0.00 | 0.00 | 0.00 | 94 | 1017.1 |
| 20260503072510 | 56 | 66 | 0.0 | 0.0 | 0.00 | 0.00 | 0.00 | 93 | 1016.9 |
| 20260503072010 | 56 | 66 | 0.0 | 0.0 | 0.00 | 0.00 | 0.00 | 94 | 1016.9 |
| 20260503071510 | 56 | 66 | 0.0 | 0.0 | 0.00 | 0.00 | 0.00 | 93 | 1017.1 |
| 20260503071010 | 56 | 66 | 0.0 | 0.0 | 0.00 | 0.00 | 0.00 | 93 | 1017.1 |
| 20260503070512 | 57 | 66 | 0.0 | 0.0 | 0.00 | 0.00 | 0.00 | 93 | 1017.1 |
| 20260503054959 | 57 | 66 | 0.0 | 0.0 | 0.00 | 0.00 | 0.00 | 90 | 1017.2 |
| 20260503054459 | 57 | 66 | 0.0 | 0.0 | 0.00 | 0.00 | 0.00 | 90 | 1017.2 |
| 20260503054000 | 58 | 66 | 0.0 | 0.0 | 0.00 | 0.00 | 0.00 | 90 | 1017.1 |
| 20260503053500 | 58 | 66 | 0.0 | 0.0 | 0.00 | 0.00 | 0.00 | 90 | 1017.1 |
| 20260503053225 | 58 | 66 | 0.0 | 0.0 | 0.00 | 0.00 | 0.00 | 89 | 1016.9 |
| 20260503052454 | 58 | 66 | 0.0 | 0.0 | 0.00 | 0.00 | 0.00 | 89 | 1016.9 |
| 20260503051955 | 58 | 66 | 0.0 | 0.0 | 0.00 | 0.00 | 0.00 | 90 | 1016.9 |